Time,TemperatureF,DewpointF,PressureIn,WindDirection,WindDirectionDegrees,WindSpeedMPH,WindSpeedGustMPH,Humidity,HourlyPrecipIn,Conditions,Clouds,dailyrainin,SoftwareType,DateUTC
2013-05-10 00:01:00,63.8,50.1,29.95,SSW,207,4.0,4.0,61,0.00,CLR,,0.00,WeatherDisplay:10.37,2013-05-10 04:01:00,
2013-05-10 00:02:00,63.8,50.1,29.95,SSW,206,4.0,4.0,61,0.00,CLR,,0.00,WeatherDisplay:10.37,2013-05-10 04:02:00,
2013-05-10 00:07:00,63.7,50.0,29.95,SW,227,3.5,3.5,61,0.00,CLR,,0.00,WeatherDisplay:10.37,2013-05-10 04:07:00,
2013-05-10 00:12:00,63.7,50.0,29.95,SSW,198,4.0,4.0,61,0.00,CLR,,0.00,WeatherDisplay:10.37,2013-05-10 04:12:00,
2013-05-10 00:17:00,63.5,49.8,29.95,SW,227,2.3,2.3,61,0.00,CLR,,0.00,WeatherDisplay:10.37,2013-05-10 04:17:00,
2013-05-10 00:22:00,63.2,50.0,29.96,SW,223,3.0,3.0,62,0.00,CLR,,0.00,WeatherDisplay:10.37,2013-05-10 04:22:00,
2013-05-10 00:27:00,63.1,49.9,29.96,SSW,205,5.0,5.0,62,0.00,CLR,,0.00,WeatherDisplay:10.37,2013-05-10 04:27:00,
2013-05-10 00:32:00,62.7,49.9,29.96,SSW,193,5.0,5.0,63,0.00,CLR,,0.00,WeatherDisplay:10.37,2013-05-10 04:32:00,
2013-05-10 00:37:00,62.9,50.1,29.95,South,182,5.0,5.0,63,0.00,CLR,,0.00,WeatherDisplay:10.37,2013-05-10 04:37:00,
2013-05-10 00:42:00,62.9,50.1,29.95,South,191,4.0,4.0,63,0.00,CLR,,0.00,WeatherDisplay:10.37,2013-05-10 04:42:00,
2013-05-10 00:47:00,62.6,50.2,29.96,South,183,5.0,5.0,64,0.00,CLR,,0.00,WeatherDisplay:10.37,2013-05-10 04:47:00,
2013-05-10 00:52:00,62.4,50.1,29.96,South,188,3.5,3.5,64,0.00,CLR,,0.00,WeatherDisplay:10.37,2013-05-10 04:52:00,
2013-05-10 00:57:00,62.1,50.2,29.96,South,188,1.2,0.0,65,0.00,CLR,,0.00,WeatherDisplay:10.37,2013-05-10 04:57:00,
2013-05-10 01:02:00,62.1,50.2,29.96,SSW,213,1.2,0.0,65,0.00,CLR,,0.00,WeatherDisplay:10.37,2013-05-10 05:02:00,
2013-05-10 01:07:00,62.0,50.5,29.97,SW,217,4.0,4.0,66,0.00,CLR,,0.00,WeatherDisplay:10.37,2013-05-10 05:07:00,
2013-05-10 01:12:00,61.3,50.2,29.97,SW,228,5.0,5.0,67,0.00,CLR,,0.00,WeatherDisplay:10.37,2013-05-10 05:12:00,
2013-05-10 01:17:00,60.4,50.6,29.97,SSW,209,5.0,5.0,70,0.00,CLR,,0.00,WeatherDisplay:10.37,2013-05-10 05:17:00,
2013-05-10 01:22:00,60.0,50.2,29.97,SW,221,7.0,7.0,70,0.00,CLR,,0.00,WeatherDisplay:10.37,2013-05-10 05:22:00,
2013-05-10 01:27:00,60.2,50.8,29.96,SW,214,8.1,8.1,71,0.00,CLR,,0.00,WeatherDisplay:10.37,2013-05-10 05:27:00,
2013-05-10 01:32:00,60.4,51.3,29.96,SW,219,3.5,3.5,72,0.00,CLR,,0.00,WeatherDisplay:10.37,2013-05-10 05:32:00,
2013-05-10 01:37:00,60.3,51.6,29.96,SSW,209,7.0,7.0,73,0.01,RA,,0.01,WeatherDisplay:10.37,2013-05-10 05:37:00,
2013-05-10 01:42:00,60.3,51.6,29.96,SSW,192,6.9,6.9,73,0.01,RA,,0.01,WeatherDisplay:10.37,2013-05-10 05:42:00,
2013-05-10 01:47:00,60.6,52.3,29.96,SSW,213,6.0,6.0,74,0.01,CLR,,0.01,WeatherDisplay:10.37,2013-05-10 05:47:00,
2013-05-10 01:52:00,60.7,52.0,29.95,SW,220,6.0,6.0,73,0.01,CLR,,0.01,WeatherDisplay:10.37,2013-05-10 05:52:00,
2013-05-10 01:57:00,61.2,52.1,29.95,SSW,199,6.0,6.0,72,0.01,CLR,,0.01,WeatherDisplay:10.37,2013-05-10 05:57:00,
2013-05-10 02:02:00,62.0,52.5,29.95,SW,215,6.0,6.0,71,0.01,CLR,,0.01,WeatherDisplay:10.37,2013-05-10 06:02:00,
2013-05-10 02:07:00,62.0,52.5,29.95,SW,219,6.0,6.0,71,0.01,CLR,,0.01,WeatherDisplay:10.37,2013-05-10 06:07:00,
2013-05-10 02:12:00,61.8,51.9,29.95,SSW,196,6.0,6.0,70,0.01,CLR,,0.01,WeatherDisplay:10.37,2013-05-10 06:12:00,
2013-05-10 02:17:00,61.7,52.2,29.94,SW,224,4.0,4.0,71,0.01,CLR,,0.01,WeatherDisplay:10.37,2013-05-10 06:17:00,
2013-05-10 02:22:00,61.3,51.8,29.94,SW,229,2.0,2.0,71,0.01,CLR,,0.01,WeatherDisplay:10.37,2013-05-10 06:22:00,
2013-05-10 02:27:00,61.0,51.5,29.94,SSW,205,5.0,5.0,71,0.01,CLR,,0.01,WeatherDisplay:10.37,2013-05-10 06:27:00,
2013-05-10 02:32:00,61.0,51.5,29.94,SSE,168,6.9,6.9,71,0.01,CLR,,0.01,WeatherDisplay:10.37,2013-05-10 06:32:00,
2013-05-10 02:37:00,61.3,51.4,29.94,SW,221,12.0,12.0,70,0.00,CLR,,0.01,WeatherDisplay:10.37,2013-05-10 06:37:00,
2013-05-10 02:42:00,61.2,51.3,29.94,SSE,164,10.4,10.4,70,0.00,CLR,,0.01,WeatherDisplay:10.37,2013-05-10 06:42:00,
2013-05-10 02:47:00,61.3,51.4,29.94,South,172,9.2,9.2,70,0.00,CLR,,0.01,WeatherDisplay:10.37,2013-05-10 06:47:00,
2013-05-10 02:52:00,61.3,51.4,29.94,SSW,196,8.1,8.1,70,0.00,CLR,,0.01,WeatherDisplay:10.37,2013-05-10 06:52:00,
2013-05-10 02:57:00,61.3,51.4,29.94,SSW,201,8.1,8.1,70,0.00,CLR,,0.01,WeatherDisplay:10.37,2013-05-10 06:57:00,
2013-05-10 03:02:00,61.2,51.3,29.94,South,171,9.2,9.2,70,0.00,CLR,,0.01,WeatherDisplay:10.37,2013-05-10 07:02:00,
2013-05-10 03:07:00,61.1,51.2,29.93,South,172,4.6,4.6,70,0.00,CLR,,0.01,WeatherDisplay:10.37,2013-05-10 07:07:00,
2013-05-10 03:12:00,61.0,51.1,29.93,South,190,4.0,4.0,70,0.00,CLR,,0.01,WeatherDisplay:10.37,2013-05-10 07:12:00,
2013-05-10 03:17:00,60.8,51.3,29.93,SE,143,5.8,5.8,71,0.00,CLR,,0.01,WeatherDisplay:10.37,2013-05-10 07:17:00,
2013-05-10 03:22:00,60.5,51.0,29.93,SSE,152,6.9,6.9,71,0.00,CLR,,0.01,WeatherDisplay:10.37,2013-05-10 07:22:00,
2013-05-10 03:27:00,60.4,51.3,29.93,South,178,8.1,8.1,72,0.00,CLR,,0.01,WeatherDisplay:10.37,2013-05-10 07:27:00,
2013-05-10 03:32:00,60.4,51.3,29.93,SW,219,6.0,6.0,72,0.00,CLR,,0.01,WeatherDisplay:10.37,2013-05-10 07:32:00,
2013-05-10 03:37:00,60.3,51.2,29.93,South,176,7.0,7.0,72,0.00,CLR,,0.01,WeatherDisplay:10.37,2013-05-10 07:37:00,
2013-05-10 03:42:00,60.1,51.0,29.93,SW,215,8.1,8.1,72,0.00,CLR,,0.01,WeatherDisplay:10.37,2013-05-10 07:42:00,
2013-05-10 03:47:00,60.1,51.0,29.93,SSE,163,8.1,8.1,72,0.00,CLR,,0.01,WeatherDisplay:10.37,2013-05-10 07:47:00,
2013-05-10 03:52:00,60.1,51.4,29.93,SSE,166,7.0,7.0,73,0.00,CLR,,0.01,WeatherDisplay:10.37,2013-05-10 07:52:00,
2013-05-10 03:57:00,59.9,51.2,29.92,South,180,7.0,7.0,73,0.00,CLR,,0.01,WeatherDisplay:10.37,2013-05-10 07:57:00,
2013-05-10 04:02:00,59.7,51.4,29.92,SSW,196,8.0,8.0,74,0.00,CLR,,0.01,WeatherDisplay:10.37,2013-05-10 08:02:00,
2013-05-10 04:07:00,59.5,51.2,29.92,SSW,202,7.0,7.0,74,0.00,CLR,,0.01,WeatherDisplay:10.37,2013-05-10 08:07:00,
2013-05-10 04:12:00,59.7,51.4,29.92,South,186,10.4,10.4,74,0.00,CLR,,0.01,WeatherDisplay:10.37,2013-05-10 08:12:00,
2013-05-10 04:17:00,59.9,51.6,29.92,South,177,10.4,10.4,74,0.00,CLR,,0.01,WeatherDisplay:10.37,2013-05-10 08:17:00,
2013-05-10 04:22:00,59.9,51.2,29.92,South,177,10.4,10.4,73,0.00,CLR,,0.01,WeatherDisplay:10.37,2013-05-10 08:22:00,
2013-05-10 04:27:00,59.8,51.5,29.91,SSE,165,10.4,10.4,74,0.00,CLR,,0.01,WeatherDisplay:10.37,2013-05-10 08:27:00,
2013-05-10 04:32:00,59.6,51.3,29.91,SSW,204,11.5,11.5,74,0.00,CLR,,0.01,WeatherDisplay:10.37,2013-05-10 08:32:00,
2013-05-10 04:37:00,59.6,51.3,29.91,South,184,12.0,12.0,74,0.00,CLR,,0.01,WeatherDisplay:10.37,2013-05-10 08:37:00,
2013-05-10 04:42:00,59.5,51.2,29.91,SW,224,9.2,9.2,74,0.00,CLR,,0.01,WeatherDisplay:10.37,2013-05-10 08:42:00,
2013-05-10 04:47:00,59.2,51.3,29.91,South,182,9.2,9.2,75,0.00,CLR,,0.01,WeatherDisplay:10.37,2013-05-10 08:47:00,
2013-05-10 04:52:00,59.4,51.5,29.91,South,172,10.4,10.4,75,0.00,CLR,,0.01,WeatherDisplay:10.37,2013-05-10 08:52:00,
2013-05-10 04:57:00,59.1,51.2,29.91,South,183,9.2,9.2,75,0.00,CLR,,0.01,WeatherDisplay:10.37,2013-05-10 08:57:00,
2013-05-10 05:02:00,59.0,51.1,29.91,SSW,194,7.0,7.0,75,0.00,CLR,,0.01,WeatherDisplay:10.37,2013-05-10 09:02:00,
2013-05-10 05:07:00,59.0,51.4,29.91,South,188,11.5,11.5,76,0.00,CLR,,0.01,WeatherDisplay:10.37,2013-05-10 09:07:00,
2013-05-10 05:12:00,58.8,51.2,29.91,SSW,196,9.2,9.2,76,0.00,CLR,,0.01,WeatherDisplay:10.37,2013-05-10 09:12:00,
2013-05-10 05:17:00,58.5,51.3,29.91,SSW,205,9.2,9.2,77,0.00,CLR,,0.01,WeatherDisplay:10.37,2013-05-10 09:17:00,
2013-05-10 05:22:00,58.6,51.4,29.91,SSW,207,9.2,9.2,77,0.00,CLR,,0.01,WeatherDisplay:10.37,2013-05-10 09:22:00,
2013-05-10 05:27:00,58.7,51.5,29.91,South,184,8.1,8.1,77,0.00,CLR,,0.01,WeatherDisplay:10.37,2013-05-10 09:27:00,
2013-05-10 05:32:00,59.0,51.8,29.91,SSW,194,8.1,8.1,77,0.00,CLR,,0.01,WeatherDisplay:10.37,2013-05-10 09:32:00,
2013-05-10 05:37:00,59.0,51.8,29.91,South,188,7.0,7.0,77,0.00,CLR,,0.01,WeatherDisplay:10.37,2013-05-10 09:37:00,
2013-05-10 05:42:00,59.0,51.8,29.91,SSW,192,9.2,9.2,77,0.00,CLR,,0.01,WeatherDisplay:10.37,2013-05-10 09:42:00,
2013-05-10 05:47:00,59.0,51.8,29.91,South,188,9.0,9.0,77,0.00,CLR,,0.01,WeatherDisplay:10.37,2013-05-10 09:47:00,
2013-05-10 05:50:00,68.6,58.8,29.82,WSW,254,12.0,15.0,71,0.01,RA,RA,0.04,WeatherDisplay:10.37,2013-05-10 09:50:00,
2013-05-10 05:52:00,59.0,51.8,29.90,South,179,9.2,9.2,77,0.00,CLR,,0.01,WeatherDisplay:10.37,2013-05-10 09:52:00,
2013-05-10 05:55:00,67.4,57.7,29.82,West,260,9.0,17.0,71,0.01,RA,RA,0.04,WeatherDisplay:10.37,2013-05-10 09:55:00,
2013-05-10 05:57:00,59.0,51.8,29.91,SSW,200,7.0,7.0,77,0.00,CLR,,0.01,WeatherDisplay:10.37,2013-05-10 09:57:00,
2013-05-10 06:02:00,59.0,51.8,29.90,SSW,208,8.1,8.1,77,0.00,CLR,,0.01,WeatherDisplay:10.37,2013-05-10 10:02:00,
2013-05-10 06:07:00,58.6,51.8,29.90,SSW,195,7.0,7.0,78,0.00,CLR,,0.01,WeatherDisplay:10.37,2013-05-10 10:07:00,
2013-05-10 06:12:00,58.9,52.1,29.90,South,186,7.0,7.0,78,0.00,CLR,,0.01,WeatherDisplay:10.37,2013-05-10 10:12:00,
2013-05-10 06:17:00,59.0,51.8,29.90,South,175,7.0,7.0,77,0.00,CLR,,0.01,WeatherDisplay:10.37,2013-05-10 10:17:00,
2013-05-10 06:22:00,59.0,51.8,29.90,SSW,202,7.0,7.0,77,0.00,CLR,,0.01,WeatherDisplay:10.37,2013-05-10 10:22:00,
2013-05-10 06:27:00,59.0,51.8,29.90,South,185,9.0,9.0,77,0.00,CLR,,0.01,WeatherDisplay:10.37,2013-05-10 10:27:00,
2013-05-10 06:32:00,59.0,51.8,29.91,South,184,6.0,6.0,77,0.00,CLR,,0.01,WeatherDisplay:10.37,2013-05-10 10:32:00,
2013-05-10 06:37:00,59.0,51.8,29.91,South,185,6.0,6.0,77,0.00,CLR,,0.01,WeatherDisplay:10.37,2013-05-10 10:37:00,
2013-05-10 06:42:00,59.0,51.8,29.91,South,190,6.0,6.0,77,0.00,CLR,,0.01,WeatherDisplay:10.37,2013-05-10 10:42:00,
2013-05-10 06:47:00,59.2,52.0,29.90,South,188,8.1,8.1,77,0.00,CLR,,0.01,WeatherDisplay:10.37,2013-05-10 10:47:00,
2013-05-10 06:52:00,59.6,52.0,29.91,South,188,8.1,8.1,76,0.00,CLR,,0.01,WeatherDisplay:10.37,2013-05-10 10:52:00,
2013-05-10 06:57:00,59.6,52.0,29.91,SSW,207,8.1,8.1,76,0.00,CLR,,0.01,WeatherDisplay:10.37,2013-05-10 10:57:00,
2013-05-10 07:02:00,59.5,52.3,29.91,South,188,7.0,7.0,77,0.00,CLR,,0.01,WeatherDisplay:10.37,2013-05-10 11:02:00,
2013-05-10 07:07:00,59.3,52.1,29.92,West,260,7.0,7.0,77,0.00,CLR,,0.01,WeatherDisplay:10.37,2013-05-10 11:07:00,
2013-05-10 07:12:00,59.1,51.9,29.94,West,279,9.2,9.2,77,0.00,CLR,,0.01,WeatherDisplay:10.37,2013-05-10 11:12:00,
2013-05-10 07:17:00,59.0,52.1,29.94,WSW,258,8.1,8.1,78,0.00,CLR,,0.01,WeatherDisplay:10.37,2013-05-10 11:17:00,
2013-05-10 07:22:00,58.9,52.4,29.94,WSW,241,6.0,6.0,79,0.00,CLR,,0.01,WeatherDisplay:10.37,2013-05-10 11:22:00,
2013-05-10 07:27:00,59.0,52.5,29.94,WSW,245,4.0,4.0,79,0.00,CLR,,0.01,WeatherDisplay:10.37,2013-05-10 11:27:00,
2013-05-10 07:32:00,59.0,52.5,29.94,West,269,6.0,6.0,79,0.00,CLR,,0.01,WeatherDisplay:10.37,2013-05-10 11:32:00,
2013-05-10 07:37:00,59.6,53.1,29.94,West,269,4.6,4.6,79,0.00,CLR,,0.01,WeatherDisplay:10.37,2013-05-10 11:37:00,
2013-05-10 07:42:00,60.2,53.3,29.93,West,265,8.0,8.0,78,0.00,CLR,,0.01,WeatherDisplay:10.37,2013-05-10 11:42:00,
2013-05-10 07:47:00,60.4,53.5,29.94,WNW,297,3.0,3.0,78,0.00,CLR,,0.01,WeatherDisplay:10.37,2013-05-10 11:47:00,
2013-05-10 07:52:00,60.4,53.5,29.94,WNW,296,3.5,3.5,78,0.00,CLR,,0.01,WeatherDisplay:10.37,2013-05-10 11:52:00,
2013-05-10 07:57:00,60.3,53.8,29.93,WNW,295,1.2,1.2,79,0.00,CLR,,0.01,WeatherDisplay:10.37,2013-05-10 11:57:00,
2013-05-10 08:02:00,60.3,53.8,29.93,WNW,299,1.0,1.0,79,0.00,CLR,,0.01,WeatherDisplay:10.37,2013-05-10 12:02:00,
2013-05-10 08:07:00,60.2,53.7,29.92,WNW,300,0.0,0.0,79,0.00,CLR,,0.01,WeatherDisplay:10.37,2013-05-10 12:07:00,
2013-05-10 08:12:00,60.2,54.0,29.93,West,263,4.0,4.0,80,0.00,CLR,,0.01,WeatherDisplay:10.37,2013-05-10 12:12:00,
2013-05-10 08:17:00,60.1,54.2,29.93,WSW,237,5.0,5.0,81,0.00,CLR,,0.01,WeatherDisplay:10.37,2013-05-10 12:17:00,
2013-05-10 08:22:00,60.0,54.2,29.93,WSW,242,4.0,4.0,81,0.00,CLR,,0.01,WeatherDisplay:10.37,2013-05-10 12:22:00,
2013-05-10 08:27:00,60.0,54.2,29.93,WSW,248,6.0,6.0,81,0.00,CLR,,0.01,WeatherDisplay:10.37,2013-05-10 12:27:00,
2013-05-10 08:32:00,60.2,54.3,29.93,SW,234,4.6,4.6,81,0.00,CLR,,0.01,WeatherDisplay:10.37,2013-05-10 12:32:00,
2013-05-10 08:37:00,60.3,54.4,29.93,SW,225,5.8,5.8,81,0.00,CLR,,0.01,WeatherDisplay:10.37,2013-05-10 12:37:00,
2013-05-10 08:42:00,60.4,54.9,29.93,SW,234,5.0,5.0,82,0.00,CLR,,0.01,WeatherDisplay:10.37,2013-05-10 12:42:00,
2013-05-10 08:47:00,60.2,54.7,29.93,WSW,249,5.8,5.8,82,0.01,RA,,0.02,WeatherDisplay:10.37,2013-05-10 12:47:00,
2013-05-10 08:52:00,60.1,54.6,29.93,SW,221,4.0,4.0,82,0.02,RA,,0.03,WeatherDisplay:10.37,2013-05-10 12:52:00,
2013-05-10 08:57:00,60.0,54.8,29.93,SW,230,4.0,4.0,83,0.02,RA,,0.03,WeatherDisplay:10.37,2013-05-10 12:57:00,
2013-05-10 09:02:00,60.0,54.8,29.93,SSW,211,6.0,6.0,83,0.02,RA,,0.03,WeatherDisplay:10.37,2013-05-10 13:02:00,
2013-05-10 09:07:00,60.1,54.9,29.93,SW,222,4.6,4.6,83,0.02,CLR,,0.03,WeatherDisplay:10.37,2013-05-10 13:07:00,
2013-05-10 09:12:00,60.2,55.0,29.93,SW,233,4.6,4.6,83,0.02,CLR,,0.03,WeatherDisplay:10.37,2013-05-10 13:12:00,
2013-05-10 09:17:00,60.2,55.0,29.93,SW,225,5.0,5.0,83,0.02,CLR,,0.03,WeatherDisplay:10.37,2013-05-10 13:17:00,
2013-05-10 09:22:00,60.2,55.0,29.93,SW,227,4.0,4.0,83,0.02,CLR,,0.03,WeatherDisplay:10.37,2013-05-10 13:22:00,
2013-05-10 09:27:00,60.1,55.2,29.93,SSW,204,6.0,6.0,84,0.02,CLR,,0.03,WeatherDisplay:10.37,2013-05-10 13:27:00,
2013-05-10 09:32:00,60.2,55.3,29.92,South,180,6.0,6.0,84,0.02,CLR,,0.03,WeatherDisplay:10.37,2013-05-10 13:32:00,
2013-05-10 09:37:00,60.2,55.3,29.92,South,190,10.4,10.4,84,0.02,CLR,,0.03,WeatherDisplay:10.37,2013-05-10 13:37:00,
2013-05-10 09:42:00,60.2,55.0,29.92,SSW,192,8.1,8.1,83,0.02,CLR,,0.03,WeatherDisplay:10.37,2013-05-10 13:42:00,
2013-05-10 09:47:00,60.3,55.1,29.91,South,176,7.0,7.0,83,0.01,CLR,,0.03,WeatherDisplay:10.37,2013-05-10 13:47:00,
2013-05-10 09:52:00,60.6,55.7,29.90,SSW,196,5.8,5.8,84,0.00,CLR,,0.03,WeatherDisplay:10.37,2013-05-10 13:52:00,
2013-05-10 09:57:00,61.1,56.2,29.91,WSW,240,7.0,7.0,84,0.00,CLR,,0.03,WeatherDisplay:10.37,2013-05-10 13:57:00,
2013-05-10 10:02:00,61.6,56.7,29.91,South,169,14.0,14.0,84,0.00,CLR,,0.03,WeatherDisplay:10.37,2013-05-10 14:02:00,
2013-05-10 10:07:00,62.0,57.1,29.91,SSW,212,10.4,10.4,84,0.00,CLR,,0.03,WeatherDisplay:10.37,2013-05-10 14:07:00,
2013-05-10 10:12:00,62.6,57.4,29.91,South,180,10.0,10.0,83,0.00,CLR,,0.03,WeatherDisplay:10.37,2013-05-10 14:12:00,
2013-05-10 10:17:00,62.9,57.3,29.92,SSW,206,8.1,8.1,82,0.00,CLR,,0.03,WeatherDisplay:10.37,2013-05-10 14:17:00,
2013-05-10 10:22:00,63.1,57.5,29.92,SSW,210,10.4,10.4,82,0.00,CLR,,0.03,WeatherDisplay:10.37,2013-05-10 14:22:00,
2013-05-10 10:27:00,63.1,57.2,29.92,SSW,209,10.0,10.0,81,0.00,CLR,,0.03,WeatherDisplay:10.37,2013-05-10 14:27:00,
2013-05-10 10:32:00,63.2,57.3,29.91,SSW,193,16.1,16.1,81,0.00,CLR,,0.03,WeatherDisplay:10.37,2013-05-10 14:32:00,
2013-05-10 10:37:00,63.1,57.2,29.91,SSW,213,11.5,11.5,81,0.00,CLR,,0.03,WeatherDisplay:10.37,2013-05-10 14:37:00,
2013-05-10 10:42:00,63.8,57.9,29.91,SW,215,10.4,10.4,81,0.00,CLR,,0.03,WeatherDisplay:10.37,2013-05-10 14:42:00,
2013-05-10 10:47:00,64.1,57.8,29.91,WSW,242,11.5,11.5,80,0.00,CLR,,0.03,WeatherDisplay:10.37,2013-05-10 14:47:00,
2013-05-10 10:52:00,64.7,58.0,29.91,SSW,202,11.5,11.5,79,0.00,CLR,,0.03,WeatherDisplay:10.37,2013-05-10 14:52:00,
2013-05-10 10:57:00,64.9,57.9,29.90,SSW,192,15.0,15.0,78,0.00,CLR,,0.03,WeatherDisplay:10.37,2013-05-10 14:57:00,
2013-05-10 11:02:00,65.3,58.3,29.90,SSW,210,12.0,12.0,78,0.00,CLR,,0.03,WeatherDisplay:10.37,2013-05-10 15:02:00,
2013-05-10 11:07:00,65.6,58.2,29.90,SSW,198,11.5,11.5,77,0.00,CLR,,0.03,WeatherDisplay:10.37,2013-05-10 15:07:00,
2013-05-10 11:12:00,65.6,58.2,29.90,South,182,9.2,9.2,77,0.00,CLR,,0.03,WeatherDisplay:10.37,2013-05-10 15:12:00,
2013-05-10 11:17:00,65.9,58.5,29.90,WSW,238,9.2,9.2,77,0.00,CLR,,0.03,WeatherDisplay:10.37,2013-05-10 15:17:00,
2013-05-10 11:22:00,66.1,58.3,29.90,SSW,198,14.0,14.0,76,0.00,CLR,,0.03,WeatherDisplay:10.37,2013-05-10 15:22:00,
2013-05-10 11:27:00,66.1,57.6,29.90,SW,216,15.0,15.0,74,0.00,CLR,,0.03,WeatherDisplay:10.37,2013-05-10 15:27:00,
2013-05-10 11:32:00,66.5,58.3,29.90,South,188,17.3,17.3,75,0.00,CLR,,0.03,WeatherDisplay:10.37,2013-05-10 15:32:00,
2013-05-10 11:37:00,66.9,58.3,29.89,South,189,15.0,15.0,74,0.00,CLR,,0.03,WeatherDisplay:10.37,2013-05-10 15:37:00,
2013-05-10 11:42:00,67.0,58.1,29.89,South,186,17.3,17.3,73,0.00,CLR,,0.03,WeatherDisplay:10.37,2013-05-10 15:42:00,
2013-05-10 11:47:00,67.0,58.1,29.89,SSW,211,14.0,14.0,73,0.00,CLR,,0.03,WeatherDisplay:10.37,2013-05-10 15:47:00,
2013-05-10 11:52:00,67.2,57.9,29.89,South,190,18.4,18.4,72,0.00,CLR,,0.03,WeatherDisplay:10.37,2013-05-10 15:52:00,
2013-05-10 11:57:00,67.7,58.3,29.89,SSW,194,15.0,15.0,72,0.00,CLR,,0.03,WeatherDisplay:10.37,2013-05-10 15:57:00,
2013-05-10 12:02:00,68.0,58.2,29.89,SSW,194,16.1,16.1,71,0.00,CLR,,0.03,WeatherDisplay:10.37,2013-05-10 16:02:00,
2013-05-10 12:07:00,67.7,58.0,29.89,SSW,203,15.0,15.0,71,0.00,CLR,,0.03,WeatherDisplay:10.37,2013-05-10 16:07:00,
2013-05-10 12:12:00,68.0,58.6,29.89,SSW,205,13.0,13.0,72,0.00,CLR,,0.03,WeatherDisplay:10.37,2013-05-10 16:12:00,
2013-05-10 12:17:00,68.4,58.6,29.89,SSW,199,11.5,11.5,71,0.00,CLR,,0.03,WeatherDisplay:10.37,2013-05-10 16:17:00,
2013-05-10 12:22:00,69.4,60.0,29.89,South,176,12.0,12.0,72,0.00,CLR,,0.03,WeatherDisplay:10.37,2013-05-10 16:22:00,
2013-05-10 12:27:00,70.0,59.8,29.88,South,185,11.0,11.0,70,0.00,CLR,,0.03,WeatherDisplay:10.37,2013-05-10 16:27:00,
2013-05-10 12:32:00,70.1,59.5,29.88,SSW,212,15.0,15.0,69,0.00,CLR,,0.03,WeatherDisplay:10.37,2013-05-10 16:32:00,
2013-05-10 12:37:00,70.3,60.4,29.88,South,175,9.2,9.2,71,0.00,CLR,,0.03,WeatherDisplay:10.37,2013-05-10 16:37:00,
2013-05-10 12:42:00,70.8,59.7,29.88,SSW,193,15.0,15.0,68,0.00,CLR,,0.03,WeatherDisplay:10.37,2013-05-10 16:42:00,
2013-05-10 12:45:00,60.0,55.5,29.78,SW,223,12.0,15.0,85,0.00,RA,RA,0.46,WeatherDisplay:10.37,2013-05-10 16:45:00,
2013-05-10 12:47:00,70.8,60.1,29.88,SSW,209,14.0,14.0,69,0.00,CLR,,0.03,WeatherDisplay:10.37,2013-05-10 16:47:00,
2013-05-10 12:50:00,60.0,55.5,29.78,SW,223,12.0,15.0,85,0.00,RA,RA,0.46,WeatherDisplay:10.37,2013-05-10 16:50:00,
2013-05-10 12:52:00,71.1,60.4,29.87,WSW,252,14.0,14.0,69,0.00,CLR,,0.03,WeatherDisplay:10.37,2013-05-10 16:52:00,
2013-05-10 12:55:00,60.0,55.5,29.77,SW,223,12.0,14.0,85,0.01,RA,RA,0.47,WeatherDisplay:10.37,2013-05-10 16:55:00,
2013-05-10 12:57:00,71.3,60.6,29.88,SSW,209,16.1,16.1,69,0.00,CLR,,0.03,WeatherDisplay:10.37,2013-05-10 16:57:00,
2013-05-10 13:00:00,60.0,55.5,29.77,SW,223,12.0,18.0,85,0.02,RA,RA,0.48,WeatherDisplay:10.37,2013-05-10 17:00:00,
2013-05-10 13:02:00,71.8,61.1,29.87,SW,227,16.1,16.1,69,0.00,CLR,,0.03,WeatherDisplay:10.37,2013-05-10 17:02:00,
2013-05-10 13:05:00,60.0,55.5,29.77,SW,223,10.0,15.0,85,0.01,RA,RA,0.48,WeatherDisplay:10.37,2013-05-10 17:05:00,
2013-05-10 13:07:00,71.9,60.3,29.87,SW,235,18.4,18.4,67,0.00,CLR,,0.03,WeatherDisplay:10.37,2013-05-10 17:07:00,
2013-05-10 13:10:00,60.0,55.5,29.77,SW,225,12.0,18.0,85,0.00,CLR,CLR,0.48,WeatherDisplay:10.37,2013-05-10 17:10:00,
2013-05-10 13:12:00,72.1,61.4,29.87,West,265,15.0,15.0,69,0.00,CLR,,0.03,WeatherDisplay:10.37,2013-05-10 17:12:00,
2013-05-10 13:15:00,60.0,55.8,29.77,SW,225,12.0,21.0,86,0.01,RA,RA,0.49,WeatherDisplay:10.37,2013-05-10 17:15:00,
2013-05-10 13:17:00,72.2,60.6,29.87,WSW,256,15.0,15.0,67,0.00,CLR,,0.03,WeatherDisplay:10.37,2013-05-10 17:17:00,
2013-05-10 13:20:00,60.0,55.8,29.77,SW,223,12.0,19.0,86,0.01,RA,RA,0.49,WeatherDisplay:10.37,2013-05-10 17:20:00,
2013-05-10 13:22:00,72.2,60.6,29.86,SW,226,12.0,12.0,67,0.00,CLR,,0.03,WeatherDisplay:10.37,2013-05-10 17:22:00,
2013-05-10 13:25:00,60.0,55.8,29.77,SW,223,12.0,15.0,86,0.01,RA,RA,0.50,WeatherDisplay:10.37,2013-05-10 17:25:00,
2013-05-10 13:27:00,72.3,60.7,29.86,SW,229,15.0,15.0,67,0.00,CLR,,0.03,WeatherDisplay:10.37,2013-05-10 17:27:00,
2013-05-10 13:30:00,60.0,55.8,29.77,SW,227,10.0,16.0,86,0.02,RA,RA,0.51,WeatherDisplay:10.37,2013-05-10 17:30:00,
2013-05-10 13:32:00,72.7,61.1,29.86,SW,227,17.3,17.3,67,0.00,CLR,,0.03,WeatherDisplay:10.37,2013-05-10 17:32:00,
2013-05-10 13:35:00,60.0,55.8,29.77,SW,231,9.0,13.0,86,0.01,RA,RA,0.51,WeatherDisplay:10.37,2013-05-10 17:35:00,
2013-05-10 13:37:00,73.0,61.4,29.86,WSW,246,15.0,15.0,67,0.00,CLR,,0.03,WeatherDisplay:10.37,2013-05-10 17:37:00,
2013-05-10 13:40:00,59.9,55.7,29.77,SW,234,10.0,15.0,86,0.02,RA,RA,0.53,WeatherDisplay:10.37,2013-05-10 17:40:00,
2013-05-10 13:42:00,73.0,61.4,29.86,WSW,238,11.5,11.5,67,0.00,CLR,,0.03,WeatherDisplay:10.37,2013-05-10 17:42:00,
2013-05-10 13:45:00,59.9,55.7,29.77,SW,236,10.0,16.0,86,0.02,RA,RA,0.53,WeatherDisplay:10.37,2013-05-10 17:45:00,
2013-05-10 13:47:00,72.9,60.9,29.86,WSW,244,11.5,11.5,66,0.00,CLR,,0.03,WeatherDisplay:10.37,2013-05-10 17:47:00,
2013-05-10 13:50:00,59.9,55.7,29.77,SW,234,8.0,14.0,86,0.01,RA,RA,0.54,WeatherDisplay:10.37,2013-05-10 17:50:00,
2013-05-10 13:52:00,73.3,61.3,29.86,West,262,13.0,13.0,66,0.00,CLR,,0.03,WeatherDisplay:10.37,2013-05-10 17:52:00,
2013-05-10 13:55:00,59.9,55.7,29.77,SW,232,8.0,13.0,86,0.02,RA,RA,0.55,WeatherDisplay:10.37,2013-05-10 17:55:00,
2013-05-10 13:57:00,73.8,61.7,29.85,SW,232,16.0,16.0,66,0.00,CLR,,0.03,WeatherDisplay:10.37,2013-05-10 17:57:00,
2013-05-10 14:00:00,59.9,55.7,29.77,SW,235,8.0,12.0,86,0.01,RA,RA,0.55,WeatherDisplay:10.37,2013-05-10 18:00:00,
2013-05-10 14:02:00,74.1,61.1,29.85,South,190,12.7,12.7,64,0.00,CLR,,0.03,WeatherDisplay:10.37,2013-05-10 18:02:00,
2013-05-10 14:05:00,60.0,55.8,29.77,SW,229,9.0,11.0,86,0.01,RA,RA,0.00,WeatherDisplay:10.37,2013-05-10 18:05:00,
2013-05-10 14:07:00,74.3,61.3,29.85,SW,230,16.1,16.1,64,0.00,CLR,,0.03,WeatherDisplay:10.37,2013-05-10 18:07:00,
2013-05-10 14:10:00,60.0,55.8,29.77,SW,227,8.0,12.0,86,0.00,RA,RA,0.00,WeatherDisplay:10.37,2013-05-10 18:10:00,
2013-05-10 14:12:00,74.2,61.7,29.84,West,259,12.7,12.7,65,0.00,CLR,,0.03,WeatherDisplay:10.37,2013-05-10 18:12:00,
2013-05-10 14:15:00,60.0,55.8,29.77,SW,229,8.0,10.0,86,0.00,CLR,CLR,0.00,WeatherDisplay:10.37,2013-05-10 18:15:00,
2013-05-10 14:17:00,74.2,62.1,29.84,South,183,10.4,10.4,66,0.00,CLR,,0.03,WeatherDisplay:10.37,2013-05-10 18:17:00,
2013-05-10 14:20:00,60.0,56.1,29.77,SW,229,8.0,12.0,87,0.00,CLR,CLR,0.00,WeatherDisplay:10.37,2013-05-10 18:20:00,
2013-05-10 14:22:00,74.5,62.0,29.84,SW,229,10.4,10.4,65,0.00,CLR,,0.03,WeatherDisplay:10.37,2013-05-10 18:22:00,
2013-05-10 14:25:00,60.0,56.1,29.77,SW,227,7.0,11.0,87,0.00,CLR,CLR,0.00,WeatherDisplay:10.37,2013-05-10 18:25:00,
2013-05-10 14:27:00,74.4,61.4,29.84,West,267,10.4,10.4,64,0.00,CLR,,0.03,WeatherDisplay:10.37,2013-05-10 18:27:00,
2013-05-10 14:30:00,60.0,56.1,29.76,SW,227,7.0,9.0,87,0.00,CLR,CLR,0.00,WeatherDisplay:10.37,2013-05-10 18:30:00,
2013-05-10 14:32:00,74.2,61.2,29.83,WSW,242,10.4,10.4,64,0.00,CLR,,0.03,WeatherDisplay:10.37,2013-05-10 18:32:00,
2013-05-10 14:35:00,60.0,56.1,29.76,SW,227,7.0,10.0,87,0.00,CLR,CLR,0.00,WeatherDisplay:10.37,2013-05-10 18:35:00,
2013-05-10 14:37:00,74.4,61.0,29.83,WSW,237,14.0,14.0,63,0.00,CLR,,0.03,WeatherDisplay:10.37,2013-05-10 18:37:00,
2013-05-10 14:40:00,60.0,56.1,29.76,SW,227,7.0,10.0,87,0.00,CLR,CLR,0.00,WeatherDisplay:10.37,2013-05-10 18:40:00,
2013-05-10 14:42:00,74.4,61.0,29.83,WSW,256,15.0,15.0,63,0.00,CLR,,0.03,WeatherDisplay:10.37,2013-05-10 18:42:00,
2013-05-10 14:45:00,60.0,56.1,29.76,SW,227,6.0,10.0,87,0.00,CLR,CLR,0.00,WeatherDisplay:10.37,2013-05-10 18:45:00,
2013-05-10 14:47:00,74.1,60.2,29.83,WSW,244,12.7,12.7,62,0.00,CLR,,0.03,WeatherDisplay:10.37,2013-05-10 18:47:00,
2013-05-10 14:50:00,60.0,56.1,29.76,SW,225,6.0,9.0,87,0.00,CLR,CLR,0.00,WeatherDisplay:10.37,2013-05-10 18:50:00,
2013-05-10 14:52:00,73.7,59.9,29.83,WSW,245,12.0,12.0,62,0.00,CLR,,0.03,WeatherDisplay:10.37,2013-05-10 18:52:00,
2013-05-10 14:55:00,60.0,56.1,29.76,SW,225,6.0,9.0,87,0.00,CLR,CLR,0.00,WeatherDisplay:10.37,2013-05-10 18:55:00,
2013-05-10 14:57:00,73.8,60.0,29.82,SW,233,12.0,12.0,62,0.00,CLR,,0.03,WeatherDisplay:10.37,2013-05-10 18:57:00,
2013-05-10 15:00:00,60.0,56.1,29.76,SW,225,6.0,8.0,87,0.00,CLR,CLR,0.00,WeatherDisplay:10.37,2013-05-10 19:00:00,
2013-05-10 15:02:00,74.3,60.0,29.82,WSW,243,11.5,11.5,61,0.00,CLR,,0.03,WeatherDisplay:10.37,2013-05-10 19:02:00,
2013-05-10 15:05:00,60.0,56.1,29.76,SW,225,6.0,9.0,87,0.00,CLR,CLR,0.00,WeatherDisplay:10.37,2013-05-10 19:05:00,
2013-05-10 15:07:00,74.8,60.9,29.81,SW,236,13.0,13.0,62,0.00,CLR,,0.03,WeatherDisplay:10.37,2013-05-10 19:07:00,
2013-05-10 15:10:00,60.1,56.2,29.76,SW,225,6.0,9.0,87,0.00,CLR,CLR,0.00,WeatherDisplay:10.37,2013-05-10 19:10:00,
2013-05-10 15:12:00,74.6,60.3,29.81,West,279,12.0,12.0,61,0.00,CLR,,0.03,WeatherDisplay:10.37,2013-05-10 19:12:00,
2013-05-10 15:15:00,60.0,56.1,29.76,SW,225,6.0,9.0,87,0.00,CLR,CLR,0.00,WeatherDisplay:10.37,2013-05-10 19:15:00,
2013-05-10 15:17:00,74.2,60.8,29.81,West,261,7.0,7.0,63,0.00,CLR,,0.03,WeatherDisplay:10.37,2013-05-10 19:17:00,
2013-05-10 15:20:00,60.0,56.1,29.76,SW,225,6.0,10.0,87,0.00,CLR,CLR,0.00,WeatherDisplay:10.37,2013-05-10 19:20:00,
2013-05-10 15:22:00,74.1,60.2,29.81,WSW,242,11.0,11.0,62,0.00,CLR,,0.03,WeatherDisplay:10.37,2013-05-10 19:22:00,
2013-05-10 15:27:00,74.0,59.7,29.81,West,268,19.0,19.0,61,0.00,CLR,,0.03,WeatherDisplay:10.37,2013-05-10 19:27:00,
2013-05-10 15:32:00,72.7,58.9,29.81,SW,225,14.0,14.0,62,0.00,CLR,,0.03,WeatherDisplay:10.37,2013-05-10 19:32:00,
2013-05-10 15:37:00,72.0,59.2,29.81,SW,229,12.0,12.0,64,0.00,CLR,,0.03,WeatherDisplay:10.37,2013-05-10 19:37:00,
2013-05-10 15:42:00,71.5,59.1,29.82,West,271,14.0,14.0,65,0.00,CLR,,0.03,WeatherDisplay:10.37,2013-05-10 19:42:00,
2013-05-10 15:47:00,70.0,59.4,29.82,SW,218,23.0,23.0,69,0.01,RA,,0.04,WeatherDisplay:10.37,2013-05-10 19:47:00,
2013-05-10 15:58:00,67.1,57.8,29.81,West,262,17.0,17.0,72,0.01,RA,,0.04,WeatherDisplay:10.37,2013-05-10 19:58:00,
2013-05-10 16:03:00,66.7,58.1,29.82,West,278,10.0,10.0,74,0.01,RA,,0.04,WeatherDisplay:10.37,2013-05-10 20:03:00,
2013-05-10 16:08:00,66.3,57.4,29.82,West,260,15.0,15.0,73,0.01,CLR,,0.04,WeatherDisplay:10.37,2013-05-10 20:08:00,
2013-05-10 16:13:00,66.6,57.3,29.82,SW,229,12.0,12.0,72,0.01,CLR,,0.04,WeatherDisplay:10.37,2013-05-10 20:13:00,
2013-05-10 16:18:00,66.7,57.0,29.82,SW,230,11.0,11.0,71,0.01,CLR,,0.04,WeatherDisplay:10.37,2013-05-10 20:18:00,
2013-05-10 16:23:00,67.1,57.4,29.82,WSW,251,9.0,9.0,71,0.01,CLR,,0.04,WeatherDisplay:10.37,2013-05-10 20:23:00,
2013-05-10 16:28:00,67.6,57.9,29.82,West,265,10.4,10.4,71,0.01,CLR,,0.04,WeatherDisplay:10.37,2013-05-10 20:28:00,
2013-05-10 16:33:00,67.6,57.5,29.82,SW,232,11.5,11.5,70,0.01,CLR,,0.04,WeatherDisplay:10.37,2013-05-10 20:33:00,
2013-05-10 16:38:00,67.6,57.5,29.81,WSW,242,11.0,11.0,70,0.01,CLR,,0.04,WeatherDisplay:10.37,2013-05-10 20:38:00,
2013-05-10 16:43:00,67.4,57.3,29.81,SW,223,8.1,8.1,70,0.01,CLR,,0.04,WeatherDisplay:10.37,2013-05-10 20:43:00,
2013-05-10 16:48:00,67.1,57.4,29.82,WSW,256,12.0,12.0,71,0.01,CLR,,0.04,WeatherDisplay:10.37,2013-05-10 20:48:00,
2013-05-10 16:53:00,65.8,57.3,29.83,WSW,242,33.4,33.4,74,0.03,RA,,0.10,WeatherDisplay:10.37,2013-05-10 20:53:00,
2013-05-10 16:58:00,64.1,56.0,29.82,West,267,30.0,30.0,75,0.11,RA,,0.15,WeatherDisplay:10.37,2013-05-10 20:58:00,
2013-05-10 17:03:00,63.1,56.1,29.82,SW,229,11.5,11.5,78,0.12,RA,,0.16,WeatherDisplay:10.37,2013-05-10 21:03:00,
2013-05-10 17:08:00,62.7,56.4,29.82,SW,221,15.0,15.0,80,0.12,RA,,0.17,WeatherDisplay:10.37,2013-05-10 21:08:00,
2013-05-10 17:13:00,62.5,56.6,29.82,SW,234,10.0,10.0,81,0.13,RA,,0.17,WeatherDisplay:10.37,2013-05-10 21:13:00,
2013-05-10 17:18:00,62.4,56.8,29.83,WSW,245,19.6,19.6,82,0.15,RA,,0.19,WeatherDisplay:10.37,2013-05-10 21:18:00,
2013-05-10 17:23:00,62.4,56.8,29.85,SW,228,30.0,30.0,82,0.19,RA,,0.23,WeatherDisplay:10.37,2013-05-10 21:23:00,
2013-05-10 17:28:00,62.1,56.2,29.84,WSW,246,34.5,34.5,81,0.21,RA,,0.26,WeatherDisplay:10.37,2013-05-10 21:28:00,
2013-05-10 17:33:00,61.8,55.9,29.85,SW,227,33.4,33.4,81,0.24,RA,,0.29,WeatherDisplay:10.37,2013-05-10 21:33:00,
2013-05-10 17:38:00,61.4,55.5,29.84,WSW,242,34.5,34.5,81,0.27,RA,,0.31,WeatherDisplay:10.37,2013-05-10 21:38:00,
2013-05-10 17:43:00,60.9,55.0,29.84,SW,234,25.3,25.3,81,0.29,RA,,0.34,WeatherDisplay:10.37,2013-05-10 21:43:00,
2013-05-10 17:48:00,60.5,55.0,29.84,WSW,245,25.3,25.3,82,0.32,RA,,0.37,WeatherDisplay:10.37,2013-05-10 21:48:00,
2013-05-10 17:53:00,60.2,54.7,29.84,SW,228,17.3,17.3,82,0.31,RA,,0.38,WeatherDisplay:10.37,2013-05-10 21:53:00,
2013-05-10 17:58:00,60.0,54.5,29.84,WSW,255,16.1,16.1,82,0.25,RA,,0.40,WeatherDisplay:10.37,2013-05-10 21:58:00,
2013-05-10 18:03:00,59.8,54.6,29.84,WSW,238,16.0,16.0,83,0.24,RA,,0.40,WeatherDisplay:10.37,2013-05-10 22:03:00,
2013-05-10 18:08:00,59.8,54.6,29.83,WSW,252,17.0,17.0,83,0.23,,,0.40,WeatherDisplay:10.37,2013-05-10 22:08:00,
2013-05-10 18:13:00,59.8,54.6,29.83,WSW,242,15.0,15.0,83,0.23,CLR,,0.41,WeatherDisplay:10.37,2013-05-10 22:13:00,
2013-05-10 18:18:00,59.9,55.1,29.83,WSW,240,14.0,14.0,84,0.22,RA,,0.41,WeatherDisplay:10.37,2013-05-10 22:18:00,
2013-05-10 18:23:00,60.0,55.2,29.83,SW,219,14.0,14.0,84,0.18,,,0.41,WeatherDisplay:10.37,2013-05-10 22:23:00,
2013-05-10 18:28:00,60.1,55.2,29.83,SW,235,13.0,13.0,84,0.16,CLR,,0.41,WeatherDisplay:10.37,2013-05-10 22:28:00,
2013-05-10 18:33:00,60.2,55.3,29.83,SW,229,16.1,16.1,84,0.12,CLR,,0.41,WeatherDisplay:10.37,2013-05-10 22:33:00,
2013-05-10 18:38:00,60.3,55.4,29.82,SSW,205,15.0,15.0,84,0.10,CLR,,0.41,WeatherDisplay:10.37,2013-05-10 22:38:00,
2013-05-10 18:43:00,60.4,55.5,29.82,SW,217,15.0,15.0,84,0.07,CLR,,0.41,WeatherDisplay:10.37,2013-05-10 22:43:00,
2013-05-10 18:48:00,60.5,55.6,29.82,WSW,238,12.0,12.0,84,0.05,CLR,,0.41,WeatherDisplay:10.37,2013-05-10 22:48:00,
2013-05-10 18:53:00,60.5,55.6,29.82,SW,235,12.0,12.0,84,0.03,CLR,,0.41,WeatherDisplay:10.37,2013-05-10 22:53:00,
2013-05-10 18:58:00,60.6,55.7,29.82,SW,219,11.5,11.5,84,0.01,CLR,,0.41,WeatherDisplay:10.37,2013-05-10 22:58:00,
2013-05-10 19:03:00,60.6,55.7,29.81,SW,215,12.0,12.0,84,0.01,CLR,,0.41,WeatherDisplay:10.37,2013-05-10 23:03:00,
2013-05-10 19:08:00,60.7,55.8,29.81,SSW,211,11.5,11.5,84,0.01,CLR,,0.41,WeatherDisplay:10.37,2013-05-10 23:08:00,
2013-05-10 19:13:00,60.7,55.8,29.81,SW,220,13.0,13.0,84,0.00,CLR,,0.41,WeatherDisplay:10.37,2013-05-10 23:13:00,
2013-05-10 19:18:00,60.7,55.8,29.81,WSW,251,10.0,10.0,84,0.00,CLR,,0.41,WeatherDisplay:10.37,2013-05-10 23:18:00,
2013-05-10 19:23:00,60.7,55.8,29.81,SW,221,9.2,9.2,84,0.00,CLR,,0.41,WeatherDisplay:10.37,2013-05-10 23:23:00,
2013-05-10 19:28:00,60.7,55.8,29.81,SW,231,12.0,12.0,84,0.00,CLR,,0.41,WeatherDisplay:10.37,2013-05-10 23:28:00,
2013-05-10 19:33:00,60.8,55.9,29.81,SW,233,9.2,9.2,84,0.00,CLR,,0.41,WeatherDisplay:10.37,2013-05-10 23:33:00,
2013-05-10 19:38:00,60.7,55.8,29.81,SW,223,11.0,11.0,84,0.00,CLR,,0.41,WeatherDisplay:10.37,2013-05-10 23:38:00,
2013-05-10 19:43:00,60.8,55.9,29.81,SSW,208,12.0,12.0,84,0.00,CLR,,0.41,WeatherDisplay:10.37,2013-05-10 23:43:00,
2013-05-10 19:48:00,60.8,55.9,29.81,SSW,205,14.0,14.0,84,0.00,CLR,,0.41,WeatherDisplay:10.37,2013-05-10 23:48:00,
2013-05-10 19:53:00,60.8,55.9,29.81,WSW,241,10.4,10.4,84,0.00,CLR,,0.41,WeatherDisplay:10.37,2013-05-10 23:53:00,
2013-05-10 19:58:00,60.8,55.9,29.81,SW,234,12.0,12.0,84,0.00,CLR,,0.41,WeatherDisplay:10.37,2013-05-10 23:58:00,
2013-05-10 20:03:00,60.8,55.9,29.81,SW,232,12.0,12.0,84,0.00,CLR,,0.41,WeatherDisplay:10.37,2013-05-11 00:03:00,
2013-05-10 20:08:00,60.8,55.9,29.81,SW,232,10.4,10.4,84,0.00,CLR,,0.41,WeatherDisplay:10.37,2013-05-11 00:08:00,
2013-05-10 20:13:00,60.9,56.0,29.80,SSW,200,13.0,13.0,84,0.00,CLR,,0.41,WeatherDisplay:10.37,2013-05-11 00:13:00,
2013-05-10 20:18:00,60.9,56.0,29.80,SW,227,11.0,11.0,84,0.00,CLR,,0.41,WeatherDisplay:10.37,2013-05-11 00:18:00,
2013-05-10 20:23:00,60.9,56.0,29.80,SSW,207,10.0,10.0,84,0.00,CLR,,0.41,WeatherDisplay:10.37,2013-05-11 00:23:00,
2013-05-10 20:28:00,60.9,56.0,29.80,SW,232,11.5,11.5,84,0.00,CLR,,0.41,WeatherDisplay:10.37,2013-05-11 00:28:00,
2013-05-10 20:33:00,60.9,56.0,29.80,SW,232,10.0,10.0,84,0.00,CLR,,0.41,WeatherDisplay:10.37,2013-05-11 00:33:00,
2013-05-10 20:38:00,60.9,56.0,29.79,SW,227,13.0,13.0,84,0.00,CLR,,0.41,WeatherDisplay:10.37,2013-05-11 00:38:00,
2013-05-10 20:43:00,60.8,55.9,29.79,SW,231,10.4,10.4,84,0.00,CLR,,0.41,WeatherDisplay:10.37,2013-05-11 00:43:00,
2013-05-10 20:48:00,60.8,55.9,29.79,SW,233,11.5,11.5,84,0.00,CLR,,0.41,WeatherDisplay:10.37,2013-05-11 00:48:00,
2013-05-10 20:53:00,60.7,55.8,29.79,SW,219,9.2,9.2,84,0.00,CLR,,0.41,WeatherDisplay:10.37,2013-05-11 00:53:00,
2013-05-10 20:58:00,60.7,55.8,29.79,WSW,240,11.5,11.5,84,0.00,CLR,,0.41,WeatherDisplay:10.37,2013-05-11 00:58:00,
2013-05-10 21:03:00,60.7,55.8,29.79,SSW,205,14.0,14.0,84,0.00,CLR,,0.41,WeatherDisplay:10.37,2013-05-11 01:03:00,
2013-05-10 21:08:00,60.6,55.7,29.79,SW,232,9.2,9.2,84,0.01,RA,,0.42,WeatherDisplay:10.37,2013-05-11 01:08:00,
2013-05-10 21:13:00,60.6,56.1,29.79,SW,228,13.0,13.0,85,0.01,RA,,0.42,WeatherDisplay:10.37,2013-05-11 01:13:00,
2013-05-10 21:18:00,60.5,56.0,29.79,SW,219,15.0,15.0,85,0.01,CLR,,0.42,WeatherDisplay:10.37,2013-05-11 01:18:00,
2013-05-10 21:23:00,60.5,56.0,29.79,SW,229,15.0,15.0,85,0.01,CLR,,0.42,WeatherDisplay:10.37,2013-05-11 01:23:00,
2013-05-10 21:28:00,60.5,56.0,29.79,SW,225,13.0,13.0,85,0.01,CLR,,0.42,WeatherDisplay:10.37,2013-05-11 01:28:00,
2013-05-10 21:33:00,60.5,55.6,29.79,SW,232,13.0,13.0,84,0.02,RA,,0.43,WeatherDisplay:10.37,2013-05-11 01:33:00,
2013-05-10 21:38:00,60.4,55.9,29.79,SW,224,11.0,11.0,85,0.02,RA,,0.43,WeatherDisplay:10.37,2013-05-11 01:38:00,
2013-05-10 21:43:00,60.3,55.8,29.79,SW,221,10.4,10.4,85,0.02,,,0.43,WeatherDisplay:10.37,2013-05-11 01:43:00,
2013-05-10 21:48:00,60.3,55.8,29.79,WSW,246,12.7,12.7,85,0.02,CLR,,0.43,WeatherDisplay:10.37,2013-05-11 01:48:00,
2013-05-10 21:53:00,60.2,55.7,29.79,SW,219,12.0,12.0,85,0.02,CLR,,0.43,WeatherDisplay:10.37,2013-05-11 01:53:00,
2013-05-10 21:58:00,60.2,55.7,29.79,SW,226,13.0,13.0,85,0.03,RA,,0.44,WeatherDisplay:10.37,2013-05-11 01:58:00,
2013-05-10 22:03:00,60.2,55.7,29.79,WSW,250,13.0,13.0,85,0.03,RA,,0.44,WeatherDisplay:10.37,2013-05-11 02:03:00,
2013-05-10 22:08:00,60.2,55.7,29.79,SSW,199,19.6,19.6,85,0.03,RA,,0.45,WeatherDisplay:10.37,2013-05-11 02:08:00,
2013-05-10 22:13:00,60.1,55.6,29.79,WSW,240,17.3,17.3,85,0.03,RA,,0.45,WeatherDisplay:10.37,2013-05-11 02:13:00,
2013-05-10 22:18:00,60.1,55.6,29.79,WSW,237,16.1,16.1,85,0.03,,,0.45,WeatherDisplay:10.37,2013-05-11 02:18:00,
2013-05-10 22:23:00,60.1,55.6,29.79,SW,228,15.0,15.0,85,0.03,CLR,,0.45,WeatherDisplay:10.37,2013-05-11 02:23:00,
2013-05-10 22:28:00,60.0,55.5,29.79,SSW,208,17.3,17.3,85,0.03,CLR,,0.45,WeatherDisplay:10.37,2013-05-11 02:28:00,
2013-05-10 22:33:00,60.0,55.5,29.79,SSW,211,14.0,14.0,85,0.03,RA,,0.46,WeatherDisplay:10.37,2013-05-11 02:33:00,
2013-05-10 22:38:00,60.1,55.6,29.78,WSW,238,14.0,14.0,85,0.03,RA,,0.46,WeatherDisplay:10.37,2013-05-11 02:38:00,